Find Starlink 5456

NORAD ID: 55667 Int'l Des: 2023-021 Owner: SPXS Country: US Constellation: starlink operational
LEOCIRCULAR

リアルタイム位置

3D地球を読み込み中...

Starlink 5456について

説明を読み込み中...

次回通過

Passes for default location (London). Set your location on the main map for personalized predictions.

高度履歴

Loading altitude history...

軌道要素

1 55667U 23021AR 26107.11820582 -.00000464 00000-0 -31121-4 0 9998
2 55667 69.9999 67.4483 0002682 264.9486 95.1367 14.98333566175036
Epoch: Apr 17, 2026 • Age: 16 hours

現在のステータス

高度 589.7 km
速度 7.57 km/s
衛星直下点 -50.63°S, 85.49°W
打ち上げ日 Feb 17, 2023
運用期間 3.1 years
タイプ internet

技術仕様

分類 Payload
質量 305.00 kg
乾燥質量 290.00 kg
総質量 305.00 kg
長さ 0.20 m
直径 2.80 m
スパン 9.00 m
形状 Box + pan
製造者 SPXS
バスタイプ Starlink
フェーズステータス In Orbit
所有者/国 SPXS/US

Most Searched